TimeMST,TemperatureF,Dew PointF,Humidity,Sea Level PressureIn,VisibilityMPH,Wind Direction,Wind SpeedMPH,Gust SpeedMPH,PrecipitationIn,Events,Conditions,WindDirDegrees,DateUTC
12:53 AM,50.0,34.0,54,29.50,10.0,South,12.7,-,N/A,,Clear,180,2013-03-09 07:53:00
1:53 AM,46.9,34.0,61,29.49,10.0,South,11.5,-,N/A,,Clear,170,2013-03-09 08:53:00
2:53 AM,45.0,33.1,63,29.45,10.0,South,12.7,-,N/A,,Clear,190,2013-03-09 09:53:00
3:53 AM,37.9,30.0,73,29.46,10.0,SSW,9.2,-,N/A,,Clear,210,2013-03-09 10:53:00
4:53 AM,37.9,30.0,73,29.46,10.0,SSW,5.8,-,N/A,,Clear,200,2013-03-09 11:53:00
5:53 AM,32.0,27.0,82,29.50,9.0,NW,4.6,-,N/A,,Clear,310,2013-03-09 12:53:00
6:34 AM,30.2,28.4,93,29.55,2.0,NW,8.1,-,N/A,,Scattered Clouds,320,2013-03-09 13:34:00
6:37 AM,32.0,28.4,87,29.55,1.2,NNW,6.9,-,N/A,,Mostly Cloudy,330,2013-03-09 13:37:00
6:43 AM,32.0,30.2,93,29.55,0.8,NNW,4.6,-,N/A,,Mostly Cloudy,330,2013-03-09 13:43:00
6:53 AM,33.1,32.0,96,29.49,1.2,West,4.6,-,N/A,,Overcast,280,2013-03-09 13:53:00
6:56 AM,33.8,30.2,87,29.55,2.0,West,4.6,-,N/A,,Overcast,270,2013-03-09 13:56:00
7:05 AM,33.8,32.0,93,29.55,3.0,WNW,6.9,-,N/A,,Overcast,290,2013-03-09 14:05:00
7:12 AM,33.8,33.8,100,29.55,2.0,West,8.1,-,N/A,,Overcast,280,2013-03-09 14:12:00
7:26 AM,35.6,33.8,93,29.56,4.0,West,5.8,-,N/A,,Overcast,280,2013-03-09 14:26:00
7:49 AM,37.4,33.8,87,29.57,6.0,NNW,13.8,-,N/A,,Haze,330,2013-03-09 14:49:00
7:53 AM,39.0,34.0,82,29.52,6.0,NNW,12.7,-,N/A,,Haze,330,2013-03-09 14:53:00
8:53 AM,46.0,37.0,71,29.50,8.0,North,16.1,-,N/A,,Overcast,350,2013-03-09 15:53:00
9:05 AM,46.4,37.4,71,29.57,8.0,North,17.3,23.0,N/A,,Overcast,10,2013-03-09 16:05:00
9:53 AM,46.9,36.0,66,29.51,6.0,North,16.1,-,N/A,,Haze,360,2013-03-09 16:53:00
10:53 AM,46.0,35.1,66,29.53,9.0,North,19.6,-,N/A,,Overcast,360,2013-03-09 17:53:00
11:53 AM,44.1,34.0,68,29.55,8.0,North,18.4,24.2,N/A,,Overcast,350,2013-03-09 18:53:00
12:53 PM,39.9,34.0,79,29.55,7.0,North,24.2,-,0.01,Rain,Light Rain,350,2013-03-09 19:53:00
1:53 PM,37.9,32.0,79,29.59,8.0,North,17.3,-,0.00,Rain,Light Rain,360,2013-03-09 20:53:00
2:53 PM,37.0,32.0,82,29.64,6.0,North,17.3,25.3,0.01,,Haze,10,2013-03-09 21:53:00
3:41 PM,35.6,32.0,87,29.67,6.0,North,23.0,29.9,0.00,,Overcast,360,2013-03-09 22:41:00
3:53 PM,35.1,30.9,85,29.68,6.0,North,21.9,29.9,0.00,,Overcast,360,2013-03-09 22:53:00
4:01 PM,33.8,30.2,87,29.67,4.0,North,26.5,34.5,N/A,,Overcast,360,2013-03-09 23:01:00
4:15 PM,33.8,30.2,87,29.67,1.8,North,23.0,33.4,0.00,Snow,Light Snow,360,2013-03-09 23:15:00
4:21 PM,33.8,30.2,87,29.68,1.0,North,26.5,34.5,0.00,Snow,Light Snow,360,2013-03-09 23:21:00
4:25 PM,33.8,30.2,87,29.67,0.8,North,26.5,34.5,0.00,Snow,Light Snow,10,2013-03-09 23:25:00
4:51 PM,32.0,30.2,93,29.69,0.5,North,23.0,33.4,0.00,Fog-Snow,Snow,360,2013-03-09 23:51:00
4:53 PM,32.0,30.0,92,29.70,0.5,North,23.0,33.4,0.00,Fog-Snow,Snow,10,2013-03-09 23:53:00
5:30 PM,32.0,30.2,93,29.71,0.5,North,13.8,-,0.01,Fog-Snow,Snow,350,2013-03-10 00:30:00
5:38 PM,33.8,30.2,87,29.72,0.5,North,18.4,25.3,0.01,Fog-Snow,Snow,360,2013-03-10 00:38:00
5:50 PM,33.8,30.2,87,29.72,0.8,North,20.7,27.6,0.01,Snow,Light Snow,360,2013-03-10 00:50:00
5:53 PM,33.1,30.0,89,29.75,1.0,North,24.2,31.1,0.01,Snow,Light Snow,360,2013-03-10 00:53:00
5:55 PM,33.8,30.2,87,29.72,1.2,North,24.2,31.1,0.00,Snow,Light Snow,360,2013-03-10 00:55:00
6:29 PM,32.0,30.2,93,29.75,1.2,North,31.1,50.6,0.00,Snow,Light Snow,360,2013-03-10 01:29:00
6:37 PM,32.0,30.2,93,29.75,1.0,North,32.2,40.3,0.00,Snow,Light Snow,360,2013-03-10 01:37:00
6:43 PM,32.0,30.2,93,29.76,0.8,North,31.1,40.3,0.00,Snow,Light Snow,360,2013-03-10 01:43:00
6:53 PM,32.0,30.0,92,29.80,0.8,North,24.2,43.7,0.00,Snow,Light Snow,360,2013-03-10 01:53:00
7:03 PM,32.0,30.2,93,29.77,0.8,North,28.8,36.8,0.00,Snow,Light Snow,350,2013-03-10 02:03:00
7:10 PM,32.0,28.4,87,29.78,1.0,North,31.1,46.0,0.00,Snow,Light Snow,360,2013-03-10 02:10:00
7:17 PM,32.0,28.4,87,29.78,1.2,North,32.2,42.6,0.00,Snow,Light Snow,360,2013-03-10 02:17:00
7:29 PM,33.8,28.4,81,29.79,1.5,North,29.9,44.9,0.00,Snow,Light Snow,360,2013-03-10 02:29:00
7:50 PM,33.8,28.4,81,29.81,2.0,North,-9999.0,-,0.00,Snow,Light Snow,0,2013-03-10 02:50:00
7:53 PM,33.1,28.9,85,29.83,-9999.0,North,-9999.0,-,0.00,,Unknown,0,2013-03-10 02:53:00
8:53 PM,33.1,28.9,85,29.87,-9999.0,North,19.6,-,N/A,,Unknown,350,2013-03-10 03:53:00
9:06 PM,33.8,30.2,87,29.87,2.5,NNW,19.6,25.3,0.00,Snow,Light Snow,340,2013-03-10 04:06:00
9:15 PM,33.8,30.2,87,29.88,5.0,North,19.6,26.5,0.00,,Mist,350,2013-03-10 04:15:00
9:24 PM,33.8,28.4,81,29.89,10.0,North,20.7,31.1,0.00,,Overcast,350,2013-03-10 04:24:00
9:53 PM,34.0,28.9,82,29.90,10.0,North,18.4,27.6,0.00,,Overcast,350,2013-03-10 04:53:00
10:39 PM,33.8,28.4,81,29.92,10.0,NNW,20.7,31.1,N/A,,Overcast,340,2013-03-10 05:39:00
10:53 PM,34.0,27.0,75,29.93,10.0,NNW,19.6,27.6,N/A,,Overcast,340,2013-03-10 05:53:00
11:53 PM,33.1,24.1,70,29.98,10.0,NNW,25.3,29.9,N/A,,Overcast,330,2013-03-10 06:53:00